Weather History for Eagle, CO

Change the Weather History Date:

Tuesday, January 29, 2013

  Actual Average Record
Temperature  
Mean Temperature 14 °F -  
Max Temperature 28 °F 37 °F 50 °F (1971)
Min Temperature 1 °F 6 °F -29 °F (1949)
Degree Days  
Heating Degree Days 50    
Moisture  
Dew Point 12 °F    
Average Humidity 85    
Maximum Humidity 93    
Minimum Humidity 58    
Precipitation  
Precipitation 0.00 in - - ()
Sea Level Pressure  
Sea Level Pressure 29.77 in    
Wind  
Wind Speed 4 mph (ENE)    
Max Wind Speed 10 mph    
Max Gust Speed 18 mph    
Visibility 6 miles    
Events Snow    
Averages and records for this station are not official NWS values.
T = Trace of Precipitation, MM = Missing Value Source: NWS Daily Summary

Daily Weather History Graph

Daily Weather History Graph

Search for Another Location

Airport:

Trip Planner

Search our weather history database for the weather conditions in past years. The results will help you decide how hot, cold, wet, or windy it might be!

Date:

Astronomy

Jan. 29, 2013 Rise Set
Actual Time 7:17 AM MST 5:24 PM MST
Civil Twilight 6:49 AM MST 5:53 PM MST
Nautical Twilight 6:16 AM MST 6:25 PM MST
Astronomical Twilight 5:45 AM MST 6:57 PM MST
Moon 8:22 PM MST (1/29) 8:16 AM MST (1/29)
Length of Visible Light 11h 03m
Length of Day
10h 06m
Waning Gibbous, 93% of the Moon is Illuminated
Jan 29
Waning Gibbous
Feb 3
Last Quarter
Feb 10
New
Feb 17
First Quarter
Feb 25
Full

Hourly Weather History & Observations

Time (MST) Temp. Windchill Dew Point Humidity Pressure Visibility Wind Dir Wind Speed Gust Speed Precip Events Conditions
12:15 AM 17.6 °F 10.7 °F 15.8 °F 93% 29.75 in 1.5 mi NNE 4.6 mph - N/A   Overcast
12:35 AM 17.6 °F 9.3 °F 15.8 °F 93% 29.75 in 1.8 mi ENE 5.8 mph - N/A   Overcast
12:55 AM 17.6 °F 9.3 °F 15.8 °F 93% 29.74 in 1.5 mi ENE 5.8 mph - N/A   Overcast
1:15 AM 17.6 °F 9.3 °F 15.8 °F 93% 29.74 in 2.5 mi ENE 5.8 mph - N/A   Overcast
1:35 AM 17.6 °F 10.7 °F 15.8 °F 93% 29.74 in 2.0 mi ENE 4.6 mph - N/A   Overcast
1:55 AM 17.6 °F 10.7 °F 15.8 °F 93% 29.74 in 2.5 mi NNE 4.6 mph - N/A   Overcast
2:15 AM 17.6 °F - 15.8 °F 93% 29.74 in 1.5 mi Calm Calm - N/A   Overcast
2:55 AM 17.6 °F 12.3 °F 15.8 °F 93% 29.74 in 3.0 mi East 3.5 mph - N/A   Overcast
3:15 AM 17.6 °F - 15.8 °F 93% 29.74 in 2.0 mi Calm Calm - N/A   Overcast
3:35 AM 17.6 °F - 15.8 °F 93% 29.74 in 2.5 mi Calm Calm - N/A   Overcast
3:55 AM 17.6 °F - 15.8 °F 93% 29.74 in 4.0 mi Calm Calm - N/A   Overcast
4:15 AM 17.6 °F - 15.8 °F 93% 29.73 in 5.0 mi Calm Calm - N/A   Overcast
4:35 AM 17.6 °F - 14.0 °F 86% 29.73 in 3.0 mi Calm Calm - N/A   Overcast
4:55 AM 15.8 °F 10.2 °F 14.0 °F 93% 29.73 in 5.0 mi East 3.5 mph - N/A   Overcast
5:15 AM 15.8 °F 7.2 °F 14.0 °F 93% 29.73 in 1.8 mi East 5.8 mph - N/A   Overcast
5:35 AM 15.8 °F 6.1 °F 14.0 °F 93% 29.73 in 1.0 mi ENE 6.9 mph - N/A   Overcast
5:55 AM 15.8 °F 8.6 °F 12.2 °F 86% 29.74 in 2.0 mi ENE 4.6 mph - N/A   Overcast
6:15 AM 15.8 °F 8.6 °F 12.2 °F 86% 29.75 in 1.5 mi ENE 4.6 mph - N/A   Overcast
6:50 AM 14.0 °F - 12.2 °F 93% 29.75 in 4.0 mi Calm Calm - N/A Snow Light Snow
6:55 AM 14.0 °F 8.2 °F 12.2 °F 93% 29.75 in 3.0 mi ENE 3.5 mph - N/A   Overcast
7:50 AM 10.4 °F - 8.6 °F 92% 29.76 in 10.0 mi Calm Calm - N/A   Mostly Cloudy
8:50 AM 15.8 °F - 12.2 °F 86% 29.77 in 7.0 mi Calm Calm - N/A   Mostly Cloudy
9:50 AM 21.2 °F - 15.8 °F 80% 29.75 in 10.0 mi Calm Calm - N/A   Partly Cloudy
10:59 AM 28.4 °F - 19.4 °F 69% 29.75 in 10.0 mi Calm Calm - N/A   Partly Cloudy
11:50 AM 28.4 °F - 17.6 °F 64% 29.74 in 10.0 mi Calm Calm - N/A   Scattered Clouds
12:50 PM 21.2 °F - 8.6 °F 58% 29.72 in 10.0 mi Calm Calm - N/A   Mostly Cloudy
1:50 PM 21.2 °F 16.4 °F 12.2 °F 68% 29.71 in 10.0 mi WNW 3.5 mph - N/A   Mostly Cloudy
2:50 PM 19.4 °F 9.5 °F 14.0 °F 80% 29.72 in 7.0 mi West 8.1 mph - N/A   Mostly Cloudy
3:58 PM 21.2 °F 10.1 °F 12.2 °F 68% 29.74 in 10.0 mi West 10.4 mph 18.4 mph N/A   Mostly Cloudy
4:50 PM 19.4 °F 9.5 °F 10.4 °F 68% 29.77 in 10.0 mi WSW 8.1 mph - N/A   Mostly Cloudy
5:50 PM 17.6 °F 9.3 °F 8.6 °F 68% 29.81 in 10.0 mi SSW 5.8 mph - N/A   Mostly Cloudy
6:55 PM 15.8 °F 8.6 °F 8.6 °F 73% 29.84 in 10.0 mi Variable 4.6 mph - N/A   Mostly Cloudy
7:59 PM 10.4 °F 2.2 °F - N/A% 29.88 in 10.0 mi ENE 4.6 mph - N/A   Mostly Cloudy
8:51 PM 8.6 °F -2.6 °F 5.0 °F 85% 29.90 in 10.0 mi East 6.9 mph - N/A   Mostly Cloudy
9:53 PM 6.8 °F - 3.2 °F 85% 29.92 in 10.0 mi Calm Calm - N/A   Mostly Cloudy
10:50 PM 6.8 °F - 1.4 °F 79% 29.93 in 10.0 mi Calm Calm - N/A   Mostly Cloudy
11:35 PM 1.4 °F -6.2 °F -0.4 °F 92% 29.95 in 10.0 mi SSE 3.5 mph - N/A   Clear
11:55 PM 1.4 °F - -0.4 °F 92% 29.95 in 10.0 mi Calm Calm - N/A   Clear